FW6030 Weather Reports


time (UTC)temp
F
wind
direction
speed
knots
gust
knots
rain 1hr
in
rain 24hr
in
rain mn
in
humidity
%
barometer
mb
20260505015830 76 360 5.2 11.3 0.00 0.00 0.00 73 1010.1
20260505015731 76 360 5.2 11.3 0.00 0.00 0.00 73 1010.1
20260505015630 76 360 4.3 10.4 0.00 0.00 0.00 73 1010.0
20260505015555 76 360 4.3 10.4 0.00 0.00 0.00 72 1010.0
20260505015453 76 360 4.3 13.0 0.00 0.00 0.00 72 1010.0
20260505015333 76 360 4.3 13.0 0.00 0.00 0.00 72 1010.0
20260505015234 76 360 3.5 13.0 0.00 0.00 0.00 72 1010.0
20260505015154 76 360 3.5 13.0 0.00 0.00 0.00 72 1010.1
20260505015034 76 360 4.3 13.0 0.00 0.00 0.00 72 1010.0
20260505014933 76 360 4.3 13.0 0.00 0.00 0.00 72 1010.1
20260505014818 76 360 5.2 13.0 0.00 0.00 0.00 72 1010.1
20260505014718 76 360 5.2 13.0 0.00 0.00 0.00 72 1010.0
20260505014639 76 360 5.2 13.0 0.00 0.00 0.00 72 1010.1
20260505014437 76 360 6.1 13.0 0.00 0.00 0.00 72 1010.0
20260505014317 76 360 6.1 13.0 0.00 0.00 0.00 72 1009.9
20260505014237 76 360 6.1 13.0 0.00 0.00 0.00 72 1009.9
20260505014116 76 360 6.1 13.0 0.00 0.00 0.00 72 1009.9
20260505014016 76 360 6.1 13.0 0.00 0.00 0.00 71 1009.9
20260505013920 76 360 6.1 13.0 0.00 0.00 0.00 71 1010.0
20260505013821 76 360 5.2 12.2 0.00 0.00 0.00 71 1010.0
20260505013721 76 360 5.2 12.2 0.00 0.00 0.00 71 1009.9
20260505013622 76 360 4.3 11.3 0.00 0.00 0.00 71 1010.0
20260505013519 76 360 4.3 11.3 0.00 0.00 0.00 71 1010.0
20260505013439 76 360 5.2 11.3 0.00 0.00 0.00 71 1010.0
20260505013319 76 360 4.3 11.3 0.00 0.00 0.00 71 1010.0
20260505013224 76 360 5.2 11.3 0.00 0.00 0.00 71 1010.0
20260505013145 76 360 5.2 11.3 0.00 0.00 0.00 71 1009.9
20260505013020 76 360 5.2 11.3 0.00 0.00 0.00 71 1009.8
20260505012920 76 360 5.2 11.3 0.00 0.00 0.00 71 1009.8
20260505012822 76 360 6.1 11.3 0.00 0.00 0.00 71 1009.8
20260505012742 77 360 5.2 11.3 0.00 0.00 0.00 71 1009.9
20260505012621 77 360 5.2 11.3 0.00 0.00 0.00 70 1009.9
20260505012522 77 360 5.2 11.3 0.00 0.00 0.00 70 1009.9
20260505012426 77 360 5.2 11.3 0.00 0.00 0.00 70 1009.9
20260505012326 77 360 5.2 11.3 0.00 0.00 0.00 70 1009.9
20260505012246 77 360 4.3 11.3 0.00 0.00 0.00 70 1009.9
20260505012146 77 360 4.3 11.3 0.00 0.00 0.00 70 1009.9
20260505012023 77 360 3.5 10.4 0.00 0.00 0.00 70 1009.9
20260505011924 77 360 3.5 10.4 0.00 0.00 0.00 70 1009.9
20260505011845 77 360 3.5 10.4 0.00 0.00 0.00 70 1009.9
20260505011725 77 360 3.5 10.4 0.00 0.00 0.00 70 1010.0
20260505011645 77 360 3.5 10.4 0.00 0.00 0.00 70 1010.0
20260505011549 77 360 3.5 10.4 0.00 0.00 0.00 70 1010.0
20260505011428 77 360 4.3 16.5 0.00 0.00 0.00 69 1010.0
20260505011329 77 360 4.3 16.5 0.00 0.00 0.00 69 1009.9
20260505011249 77 360 4.3 16.5 0.00 0.00 0.00 69 1009.9
20260505011129 77 360 4.3 16.5 0.00 0.00 0.00 69 1009.9
20260505011030 77 360 5.2 16.5 0.00 0.00 0.00 69 1009.9
20260505010929 77 360 6.1 16.5 0.00 0.00 0.00 69 1009.9
20260505010834 77 360 7.0 16.5 0.00 0.00 0.00 69 1009.8
20260505010734 77 360 7.8 16.5 0.00 0.00 0.00 69 1009.8
20260505010635 77 360 7.8 16.5 0.00 0.00 0.00 69 1009.7
20260505010555 77 360 7.8 16.5 0.00 0.00 0.00 69 1009.7
20260505010434 77 360 7.8 17.4 0.00 0.00 0.00 69 1009.7
20260505010335 77 360 7.0 17.4 0.00 0.00 0.00 69 1009.8
20260505010216 77 360 6.1 17.4 0.00 0.00 0.00 69 1009.8
20260505010121 77 360 6.1 17.4 0.00 0.00 0.00 69 1009.8
20260505010020 77 360 7.0 17.4 0.00 0.00 0.00 68 1009.8
20260505005941 77 360 7.0 17.4 0.00 0.00 0.00 68 1009.8
20260505005822 77 360 7.0 17.4 0.00 0.00 0.00 68 1009.9
20260505005721 77 360 7.0 13.9 0.00 0.00 0.00 68 1009.8
20260505005639 77 360 7.0 13.9 0.00 0.00 0.00 68 1009.8
20260505005517 78 360 6.1 13.9 0.00 0.00 0.00 68 1009.8
20260505005418 78 360 6.1 13.9 0.00 0.00 0.00 68 1009.8
20260505005322 78 360 6.1 13.9 0.00 0.00 0.00 68 1009.8
20260505005223 78 360 6.1 13.9 0.00 0.00 0.00 68 1009.8
20260505005124 78 360 6.1 14.8 0.00 0.00 0.00 67 1009.8
20260505005024 78 360 6.1 14.8 0.00 0.00 0.00 67 1009.8
20260505004924 78 360 7.0 14.8 0.00 0.00 0.00 67 1009.8
20260505004825 78 360 7.8 14.8 0.00 0.00 0.00 67 1009.9
20260505004725 78 360 7.8 14.8 0.00 0.00 0.00 67 1009.8
20260505004628 78 360 8.7 17.4 0.00 0.00 0.00 67 1009.8
20260505004549 78 360 8.7 20.9 0.00 0.00 0.00 67 1009.8
20260505004427 78 360 7.8 20.9 0.00 0.00 0.00 67 1009.7
20260505004348 78 360 7.8 20.9 0.00 0.00 0.00 67 1009.7
20260505004249 78 360 8.7 20.9 0.00 0.00 0.00 66 1009.7
20260505004128 78 360 7.8 20.9 0.00 0.00 0.00 66 1009.8
20260505004028 78 360 8.7 20.9 0.00 0.00 0.00 66 1009.7
20260505003949 78 360 7.8 19.1 0.00 0.00 0.00 66 1009.7
20260505003827 78 360 7.0 19.1 0.00 0.00 0.00 66 1009.7
20260505003732 78 360 7.0 19.1 0.00 0.00 0.00 66 1009.7
20260505003632 78 360 7.0 19.1 0.00 0.00 0.00 66 1009.7
20260505003532 78 360 6.1 13.0 0.00 0.00 0.00 66 1009.7
20260505003432 78 360 5.2 13.0 0.00 0.00 0.00 66 1009.7
20260505003332 78 360 4.3 13.0 0.00 0.00 0.00 66 1009.7
20260505003233 79 360 3.5 13.0 0.00 0.00 0.00 66 1009.6
20260505003154 79 360 4.3 13.0 0.00 0.00 0.00 66 1009.6
20260505003018 79 360 4.3 13.0 0.00 0.00 0.00 65 1009.6
20260505002919 79 360 4.3 13.0 0.00 0.00 0.00 65 1009.6
20260505002820 79 360 3.5 15.6 0.00 0.00 0.00 65 1009.6
20260505002720 79 360 4.3 17.4 0.00 0.00 0.00 65 1009.6
20260505002620 79 360 5.2 17.4 0.00 0.00 0.00 65 1009.6
20260505002521 79 360 6.1 17.4 0.00 0.00 0.00 65 1009.6
20260505002425 79 360 7.8 17.4 0.00 0.00 0.00 65 1009.7
20260505002345 79 360 7.8 17.4 0.00 0.00 0.00 65 1009.6
20260505002225 79 360 7.8 17.4 0.00 0.00 0.00 64 1009.7
20260505002125 79 360 8.7 17.4 0.00 0.00 0.00 64 1009.6
20260505002026 79 360 7.8 17.4 0.00 0.00 0.00 64 1009.6
20260505001927 79 360 7.8 17.4 0.00 0.00 0.00 65 1009.6
20260505001827 79 360 7.0 17.4 0.00 0.00 0.00 65 1009.6
20260505001731 79 360 7.0 17.4 0.00 0.00 0.00 65 1009.5
20260505001632 79 360 6.1 18.2 0.00 0.00 0.00 64 1009.6
20260505001532 79 360 6.1 18.2 0.00 0.00 0.00 64 1009.5
20260505001433 79 360 6.1 19.1 0.00 0.00 0.00 64 1009.4
20260505001333 79 360 6.1 19.1 0.00 0.00 0.00 63 1009.4
20260505001234 79 360 6.1 19.1 0.00 0.00 0.00 63 1009.5
20260505001118 79 360 7.0 19.1 0.00 0.00 0.00 63 1009.6
20260505001019 79 360 6.1 19.1 0.00 0.00 0.00 63 1009.5
20260505000918 79 360 7.0 19.1 0.00 0.00 0.00 63 1009.6
20260505000820 79 360 7.0 19.1 0.00 0.00 0.00 63 1009.5
20260505000721 79 360 7.0 19.1 0.00 0.00 0.00 63 1009.6
20260505000621 79 360 7.0 19.1 0.00 0.00 0.00 63 1009.7
20260505000521 79 360 7.0 19.1 0.00 0.00 0.00 63 1009.6
20260505000428 79 360 6.1 19.1 0.00 0.00 0.00 63 1009.6
20260505000327 79 360 7.0 20.9 0.00 0.00 0.00 63 1009.7
20260505000227 79 360 7.0 20.9 0.00 0.00 0.00 63 1009.7
20260505000128 79 360 7.0 20.9 0.00 0.00 0.00 63 1009.8
20260505000047 79 360 5.2 20.9 0.00 0.00 0.00 62 1009.7
20260504235927 79 360 7.0 20.9 0.00 0.00 0.00 62 1009.7
20260504235827 79 360 7.8 20.9 0.00 0.00 0.00 62 1009.8
20260504235752 79 360 9.6 20.9 0.00 0.00 0.00 62 1009.8
20260504235631 80 360 9.6 20.9 0.00 0.00 0.00 62 1009.8
20260504235531 80 360 9.6 20.9 0.00 0.00 0.00 62 1009.8
20260504235431 80 360 10.4 20.9 0.00 0.00 0.00 62 1009.9
20260504235332 80 360 10.4 20.9 0.00 0.00 0.00 62 1009.8
20260504235233 80 360 8.7 20.9 0.00 0.00 0.00 62 1009.9
20260504235154 80 360 7.0 18.2 0.00 0.00 0.00 62 1009.8
20260504235037 80 360 7.8 18.2 0.00 0.00 0.00 62 1009.9
20260504234937 80 360 7.8 18.2 0.00 0.00 0.00 62 1009.9
20260504234816 80 360 8.7 18.2 0.00 0.00 0.00 62 1009.9
20260504234718 80 360 8.7 21.7 0.00 0.00 0.00 62 1009.9
20260504234639 80 360 7.8 21.7 0.00 0.00 0.00 62 1009.9
20260504234519 80 360 7.0 21.7 0.00 0.00 0.00 62 1009.9
20260504234440 80 360 7.0 21.7 0.00 0.00 0.00 62 1009.8
20260504234320 80 360 7.8 21.7 0.00 0.00 0.00 62 1009.9
20260504234239 80 360 7.0 21.7 0.00 0.00 0.00 62 1009.9
20260504234143 80 360 7.0 21.7 0.00 0.00 0.00 62 1009.8
20260504234016 80 360 6.1 21.7 0.00 0.00 0.00 62 1009.9
20260504233916 80 360 6.1 21.7 0.00 0.00 0.00 62 1010.0
20260504233837 80 360 4.3 21.7 0.00 0.00 0.00 62 1010.1
20260504233716 80 360 4.3 13.9 0.00 0.00 0.00 62 1010.0
20260504233617 80 360 3.5 13.9 0.00 0.00 0.00 62 1010.1
20260504233517 80 360 4.3 13.9 0.00 0.00 0.00 62 1010.1
20260504233442 80 360 4.3 13.9 0.00 0.00 0.00 62 1010.1
20260504233321 80 360 4.3 13.9 0.00 0.00 0.00 62 1010.2
20260504233222 80 360 4.3 13.9 0.00 0.00 0.00 62 1010.3
20260504233121 80 360 4.3 13.9 0.00 0.00 0.00 62 1010.2
20260504233022 80 360 5.2 13.9 0.00 0.00 0.00 62 1010.1
20260504232922 80 360 4.3 20.9 0.00 0.00 0.00 62 1010.2
20260504232822 80 360 5.2 20.9 0.00 0.00 0.00 62 1010.3
20260504232728 80 360 6.1 20.9 0.00 0.00 0.00 61 1010.3
20260504232628 80 360 5.2 20.9 0.00 0.00 0.00 61 1010.2
20260504232527 80 360 6.1 20.9 0.00 0.00 0.00 61 1010.2
20260504232449 80 360 7.8 20.9 0.00 0.00 0.00 61 1010.2
20260504232347 80 360 7.8 20.9 0.00 0.00 0.00 61 1010.2
20260504232227 80 360 7.0 20.9 0.00 0.00 0.00 61 1010.2
20260504232127 80 360 7.8 20.9 0.00 0.00 0.00 61 1010.2
20260504232027 80 360 7.0 20.9 0.00 0.00 0.00 61 1010.2
20260504231931 80 360 6.1 19.1 0.00 0.00 0.00 61 1010.2
20260504231831 80 360 5.2 19.1 0.00 0.00 0.00 61 1010.2
20260504231732 80 360 5.2 19.1 0.00 0.00 0.00 61 1010.2
20260504231632 80 360 6.1 19.1 0.00 0.00 0.00 61 1010.2
20260504231533 80 360 5.2 19.1 0.00 0.00 0.00 61 1010.2
20260504231453 80 360 6.1 19.1 0.00 0.00 0.00 61 1010.2
20260504231353 81 360 7.0 19.1 0.00 0.00 0.00 60 1010.2
20260504231235 81 360 6.1 18.2 0.00 0.00 0.00 61 1010.2
20260504231117 81 360 6.1 18.2 0.00 0.00 0.00 61 1010.1
20260504231017 81 360 7.0 18.2 0.00 0.00 0.00 61 1010.1
20260504230917 80 360 6.1 20.0 0.00 0.00 0.00 61 1010.1
20260504230818 80 360 4.3 20.0 0.00 0.00 0.00 61 1010.1
20260504230739 80 360 4.3 20.0 0.00 0.00 0.00 62 1010.2
20260504230618 80 360 5.2 20.0 0.00 0.00 0.00 62 1010.3
20260504230543 80 360 5.2 20.0 0.00 0.00 0.00 62 1010.3
20260504230416 80 360 7.8 20.0 0.00 0.00 0.00 62 1010.3
20260504230336 80 360 9.6 20.0 0.00 0.00 0.00 62 1010.3
20260504230256 80 360 11.3 20.0 0.00 0.00 0.00 62 1010.3
20260504230116 80 360 10.4 20.0 0.00 0.00 0.00 61 1010.3
20260504230016 80 360 10.4 19.1 0.00 0.00 0.00 61 1010.4
20260504225917 80 360 8.7 19.1 0.00 0.00 0.00 61 1010.4
20260504225842 81 360 8.7 19.1 0.00 0.00 0.00 61 1010.4
20260504225720 81 360 7.0 19.1 0.00 0.00 0.00 62 1010.4
20260504225642 81 360 7.0 19.1 0.00 0.00 0.00 61 1010.4
20260504225604 81 360 7.0 19.1 0.00 0.00 0.00 61 1010.5
20260504225443 81 360 7.8 19.1 0.00 0.00 0.00 61 1010.5
20260504225316 81 360 6.1 15.6 0.00 0.00 0.00 61 1010.5
20260504225217 81 360 6.1 14.8 0.00 0.00 0.00 61 1010.4
20260504225117 81 360 5.2 14.8 0.00 0.00 0.00 61 1010.6
20260504225022 81 360 5.2 14.8 0.00 0.00 0.00 61 1010.5
20260504224942 81 360 5.2 17.4 0.00 0.00 0.00 61 1010.5
20260504224821 81 360 5.2 17.4 0.00 0.00 0.00 61 1010.6
20260504224742 81 360 6.1 19.1 0.00 0.00 0.00 61 1010.6
20260504224622 81 360 6.1 19.1 0.00 0.00 0.00 61 1010.6
20260504224522 81 360 7.0 19.1 0.00 0.00 0.00 60 1010.6
20260504224422 81 360 6.1 19.1 0.00 0.00 0.00 60 1010.5
20260504224343 81 360 6.1 19.1 0.00 0.00 0.00 60 1010.5
20260504224226 81 360 6.1 19.1 0.00 0.00 0.00 60 1010.6
20260504224127 81 360 6.1 19.1 0.00 0.00 0.00 60 1010.6
20260504224027 81 360 6.1 19.1 0.00 0.00 0.00 60 1010.6
20260504223946 81 360 6.1 19.1 0.00 0.00 0.00 60 1010.6
20260504223825 81 360 6.1 17.4 0.00 0.00 0.00 60 1010.6
20260504223727 81 360 6.1 17.4 0.00 0.00 0.00 59 1010.6
20260504223627 81 360 6.1 20.0 0.00 0.00 0.00 59 1010.7
20260504223532 81 360 6.1 20.0 0.00 0.00 0.00 60 1010.7
20260504223433 82 360 6.1 20.0 0.00 0.00 0.00 60 1010.7
20260504223333 82 360 6.1 20.0 0.00 0.00 0.00 60 1010.6
20260504223234 81 360 6.1 20.0 0.00 0.00 0.00 60 1010.7
20260504223133 81 360 7.0 20.0 0.00 0.00 0.00 60 1010.6
20260504223035 82 360 6.1 20.0 0.00 0.00 0.00 60 1010.6
20260504222920 81 360 7.0 17.4 0.00 0.00 0.00 60 1010.7
20260504222822 81 360 6.1 17.4 0.00 0.00 0.00 60 1010.7
20260504222722 81 360 7.0 17.4 0.00 0.00 0.00 60 1010.6
20260504222642 81 360 7.0 17.4 0.00 0.00 0.00 60 1010.6
20260504222603 81 360 6.1 21.7 0.00 0.00 0.00 60 1010.7
20260504222416 81 360 6.1 21.7 0.00 0.00 0.00 60 1010.7
20260504222336 81 360 7.0 21.7 0.00 0.00 0.00 60 1010.7
20260504222220 81 360 7.0 21.7 0.00 0.00 0.00 60 1010.8
20260504222121 82 360 7.8 21.7 0.00 0.00 0.00 60 1010.8
20260504222022 82 360 7.0 21.7 0.00 0.00 0.00 59 1010.8
20260504221923 82 360 9.6 21.7 0.00 0.00 0.00 59 1010.8
20260504221824 82 360 9.6 21.7 0.00 0.00 0.00 59 1010.7
20260504221723 82 360 9.6 21.7 0.00 0.00 0.00 59 1010.7
20260504221628 82 360 9.6 21.7 0.00 0.00 0.00 59 1010.7
20260504221529 82 360 7.8 21.7 0.00 0.00 0.00 60 1010.7
20260504221430 82 360 7.8 21.7 0.00 0.00 0.00 59 1010.7
20260504221329 82 360 6.1 16.5 0.00 0.00 0.00 59 1010.7
20260504221230 82 360 6.1 16.5 0.00 0.00 0.00 59 1010.6
20260504221152 82 360 7.0 16.5 0.00 0.00 0.00 59 1010.7
20260504221032 82 360 7.0 16.5 0.00 0.00 0.00 59 1010.7
20260504220917 82 360 7.0 16.5 0.00 0.00 0.00 59 1010.7
20260504220816 82 360 6.1 15.6 0.00 0.00 0.00 61 1010.7
20260504220718 82 360 6.1 15.6 0.00 0.00 0.00 61 1010.7
20260504220618 82 360 7.0 15.6 0.00 0.00 0.00 61 1010.7
20260504220519 81 360 7.8 17.4 0.00 0.00 0.00 61 1010.7
20260504220419 81 360 7.8 17.4 0.00 0.00 0.00 61 1010.8
20260504220341 81 360 8.7 17.4 0.00 0.00 0.00 62 1010.7
20260504220225 81 360 8.7 17.4 0.00 0.00 0.00 61 1010.7
20260504220126 81 360 8.7 17.4 0.00 0.00 0.00 61 1010.7
20260504220027 81 360 8.7 17.4 0.00 0.00 0.00 61 1010.8
20260504215927 81 360 7.8 22.6 0.00 0.00 0.00 61 1010.8
20260504215828 81 360 7.8 22.6 0.00 0.00 0.00 61 1010.9
20260504215729 81 360 8.7 22.6 0.00 0.00 0.00 61 1010.8
20260504215632 81 360 7.8 22.6 0.00 0.00 0.00 60 1011.0
20260504215533 81 360 9.6 22.6 0.00 0.00 0.00 60 1011.0
20260504215433 82 360 8.7 22.6 0.00 0.00 0.00 60 1011.0
20260504215334 82 360 8.7 22.6 0.00 0.00 0.00 60 1011.0
20260504215233 82 360 8.7 22.6 0.00 0.00 0.00 59 1010.9
20260504215134 82 360 7.8 22.6 0.00 0.00 0.00 59 1010.8
20260504215033 82 360 7.0 18.2 0.00 0.00 0.00 60 1010.8
20260504214918 82 360 6.1 20.9 0.00 0.00 0.00 59 1010.8
20260504214818 82 360 6.1 20.9 0.00 0.00 0.00 59 1010.8
20260504214718 82 360 7.8 20.9 0.00 0.00 0.00 59 1010.8
20260504214638 82 360 7.0 22.6 0.00 0.00 0.00 59 1010.8
20260504214518 82 360 7.0 23.5 0.00 0.00 0.00 59 1010.8
20260504214418 82 360 8.7 23.5 0.00 0.00 0.00 61 1010.8
20260504214318 82 360 9.6 23.5 0.00 0.00 0.00 61 1010.8
20260504214223 81 360 8.7 23.5 0.00 0.00 0.00 61 1010.8
20260504214123 81 360 10.4 23.5 0.00 0.00 0.00 60 1010.9
20260504214044 81 360 13.0 23.5 0.00 0.00 0.00 60 1010.9
20260504213923 81 360 13.0 23.5 0.00 0.00 0.00 60 1011.0
20260504213823 81 360 12.2 23.5 0.00 0.00 0.00 60 1010.8
20260504213722 81 360 13.0 23.5 0.00 0.00 0.00 60 1010.9
20260504213622 81 360 12.2 22.6 0.00 0.00 0.00 60 1010.8
20260504213527 81 360 10.4 21.7 0.00 0.00 0.00 61 1010.8
20260504213427 81 360 10.4 21.7 0.00 0.00 0.00 60 1010.8
20260504213348 81 360 8.7 21.7 0.00 0.00 0.00 60 1010.9
20260504213227 81 360 7.0 20.0 0.00 0.00 0.00 61 1010.9
20260504213127 81 360 7.0 20.0 0.00 0.00 0.00 61 1010.8
20260504213027 81 360 6.1 20.0 0.00 0.00 0.00 61 1010.9
20260504212928 81 360 6.1 20.0 0.00 0.00 0.00 60 1011.0
20260504212833 81 360 7.8 20.0 0.00 0.00 0.00 61 1011.0
20260504212734 81 360 7.8 20.0 0.00 0.00 0.00 61 1011.0
20260504212634 81 360 9.6 20.0 0.00 0.00 0.00 61 1011.1
20260504212556 81 360 10.4 20.0 0.00 0.00 0.00 61 1011.1
20260504212436 81 360 10.4 20.0 0.00 0.00 0.00 61 1011.1
20260504212316 80 360 10.4 17.4 0.00 0.00 0.00 61 1011.0
20260504212217 80 360 10.4 17.4 0.00 0.00 0.00 61 1011.1
20260504212121 80 360 9.6 17.4 0.00 0.00 0.00 60 1011.2
20260504212023 81 360 8.7 17.4 0.00 0.00 0.00 61 1011.1
20260504211942 81 360 7.8 17.4 0.00 0.00 0.00 60 1011.1
20260504211816 81 360 7.8 17.4 0.00 0.00 0.00 60 1011.2
20260504211737 81 360 7.8 25.2 0.00 0.00 0.00 60 1011.2
20260504211616 82 360 7.8 25.2 0.00 0.00 0.00 60 1011.1
20260504211516 82 360 7.0 25.2 0.00 0.00 0.00 59 1011.2
20260504211420 82 360 5.2 25.2 0.00 0.00 0.00 60 1011.3
20260504211321 82 360 6.1 25.2 0.00 0.00 0.00 60 1011.3
20260504211220 82 360 7.0 25.2 0.00 0.00 0.00 60 1011.3
20260504211120 81 360 8.7 25.2 0.00 0.00 0.00 60 1011.3
20260504211021 81 360 10.4 25.2 0.00 0.00 0.00 59 1011.3
20260504210921 82 360 9.6 25.2 0.00 0.00 0.00 59 1011.3
20260504210822 82 360 8.7 19.1 0.00 0.00 0.00 60 1011.3
20260504210728 82 360 7.8 18.2 0.00 0.00 0.00 60 1011.3
20260504210629 82 360 7.0 18.2 0.00 0.00 0.00 59 1011.4
20260504210528 82 360 5.2 18.2 0.00 0.00 0.00 59 1011.4
20260504210428 82 360 6.1 18.2 0.00 0.00 0.00 59 1011.5
20260504210329 82 360 6.1 18.2 0.00 0.00 0.00 59 1011.4
20260504210229 82 360 7.0 18.2 0.00 0.00 0.00 59 1011.4
20260504210129 82 360 7.0 18.2 0.00 0.00 0.00 59 1011.6
20260504210035 82 360 7.8 18.2 0.00 0.00 0.00 60 1011.6
20260504205916 82 360 7.0 18.2 0.00 0.00 0.00 60 1011.5
20260504205817 82 360 6.1 16.5 0.00 0.00 0.00 60 1011.6
20260504205717 82 360 4.3 16.5 0.00 0.00 0.00 59 1011.6
20260504205617 82 360 3.5 16.5 0.00 0.00 0.00 61 1011.6
20260504205517 82 360 5.2 16.5 0.00 0.00 0.00 61 1011.6
20260504205421 82 242 6.1 16.5 0.00 0.00 0.00 63 1011.6
20260504205322 82 360 7.0 16.5 0.00 0.00 0.00 60 1011.6
20260504205242 82 360 7.0 20.9 0.00 0.00 0.00 60 1011.7
20260504205122 82 360 6.1 20.9 0.00 0.00 0.00 59 1011.6
20260504205044 82 360 5.2 20.9 0.00 0.00 0.00 58 1011.7
20260504204922 82 360 5.2 20.9 0.00 0.00 0.00 59 1011.7
20260504204823 82 360 5.2 20.9 0.00 0.00 0.00 59 1011.7
20260504204723 82 360 7.0 20.9 0.00 0.00 0.00 60 1011.6
20260504204628 82 360 8.7 20.9 0.00 0.00 0.00 61 1011.6
20260504204528 81 360 10.4 20.9 0.00 0.00 0.00 61 1011.7
20260504204429 81 360 11.3 20.0 0.00 0.00 0.00 60 1011.6
20260504204330 81 360 9.6 20.0 0.00 0.00 0.00 60 1011.6
20260504204230 82 360 7.8 16.5 0.00 0.00 0.00 60 1011.6
20260504204130 82 360 7.0 16.5 0.00 0.00 0.00 60 1011.7
20260504204034 81 360 7.8 16.5 0.00 0.00 0.00 60 1011.7
20260504203955 81 360 9.6 16.5 0.00 0.00 0.00 61 1011.8
20260504203834 81 360 10.4 17.4 0.00 0.00 0.00 61 1011.7
20260504203734 81 360 9.6 17.4 0.00 0.00 0.00 61 1011.7
20260504203635 81 360 9.6 17.4 0.00 0.00 0.00 60 1011.8
20260504203535 81 360 8.7 19.1 0.00 0.00 0.00 61 1011.8
20260504203436 81 360 8.7 19.1 0.00 0.00 0.00 61 1011.8
20260504203339 81 360 8.7 22.6 0.00 0.00 0.00 60 1012.0
20260504203219 81 360 8.7 22.6 0.00 0.00 0.00 60 1012.0
20260504203120 81 360 8.7 22.6 0.00 0.00 0.00 60 1012.0
20260504203021 81 360 9.6 22.6 0.00 0.00 0.00 60 1012.1
20260504202943 81 360 10.4 22.6 0.00 0.00 0.00 60 1012.1
20260504202823 81 360 10.4 22.6 0.00 0.00 0.00 60 1012.0
20260504202742 81 360 10.4 22.6 0.00 0.00 0.00 60 1012.0
20260504202622 81 360 9.6 22.6 0.00 0.00 0.00 60 1012.1
20260504202526 81 360 8.7 22.6 0.00 0.00 0.00 60 1012.1
20260504202446 81 360 7.0 22.6 0.00 0.00 0.00 60 1012.1
20260504202326 81 360 8.7 22.6 0.00 0.00 0.00 60 1012.1
20260504202227 81 360 10.4 22.6 0.00 0.00 0.00 60 1012.1
20260504202127 81 360 10.4 22.6 0.00 0.00 0.00 60 1012.2
20260504202048 81 360 9.6 22.6 0.00 0.00 0.00 60 1012.1
20260504201927 81 360 9.6 22.6 0.00 0.00 0.00 60 1012.3
20260504201831 81 360 7.0 20.0 0.00 0.00 0.00 60 1012.0
20260504201732 81 360 5.2 17.4 0.00 0.00 0.00 61 1012.2
20260504201632 81 360 6.1 17.4 0.00 0.00 0.00 61 1012.2
20260504201553 81 360 7.0 17.4 0.00 0.00 0.00 61 1012.2
20260504201433 81 360 7.0 17.4 0.00 0.00 0.00 61 1012.2
20260504201334 81 360 6.1 17.4 0.00 0.00 0.00 61 1012.2
20260504201254 81 360 7.0 17.4 0.00 0.00 0.00 60 1012.2
20260504201117 81 360 7.0 17.4 0.00 0.00 0.00 61 1012.2
20260504201019 81 360 7.8 17.4 0.00 0.00 0.00 61 1012.3
20260504200918 81 360 7.8 19.1 0.00 0.00 0.00 62 1012.4
20260504200819 80 360 8.7 19.1 0.00 0.00 0.00 61 1012.3
20260504200719 80 360 9.6 19.1 0.00 0.00 0.00 62 1012.4
20260504200619 80 360 8.7 19.1 0.00 0.00 0.00 62 1012.5
20260504200520 80 360 8.7 19.1 0.00 0.00 0.00 61 1012.5
20260504200440 80 360 7.8 19.1 0.00 0.00 0.00 60 1012.4
20260504200324 80 360 7.8 19.1 0.00 0.00 0.00 60 1012.4
20260504200225 81 360 7.0 19.1 0.00 0.00 0.00 60 1012.5
20260504200125 81 360 7.8 19.1 0.00 0.00 0.00 61 1012.5
20260504200025 81 360 6.1 14.8 0.00 0.00 0.00 61 1012.5
20260504195927 81 360 6.1 17.4 0.00 0.00 0.00 61 1012.5
20260504195827 81 360 6.1 17.4 0.00 0.00 0.00 61 1012.4
20260504195732 81 360 6.1 17.4 0.00 0.00 0.00 61 1012.5
20260504195631 80 360 5.2 17.4 0.00 0.00 0.00 61 1012.5
20260504195532 80 360 6.1 17.4 0.00 0.00 0.00 62 1012.6
20260504195432 80 360 7.0 17.4 0.00 0.00 0.00 62 1012.5
20260504195331 80 360 7.0 17.4 0.00 0.00 0.00 62 1012.6
20260504195232 80 360 7.0 17.4 0.00 0.00 0.00 61 1012.6
20260504195132 80 360 7.0 17.4 0.00 0.00 0.00 60 1012.7
20260504195017 80 360 6.1 15.6 0.00 0.00 0.00 61 1012.8
20260504194916 80 360 5.2 21.7 0.00 0.00 0.00 62 1012.7
20260504194816 80 360 5.2 21.7 0.00 0.00 0.00 62 1012.8
20260504194717 80 360 6.1 21.7 0.00 0.00 0.00 62 1012.8
20260504194618 79 360 5.2 21.7 0.00 0.00 0.00 62 1012.9
20260504194538 79 360 6.1 21.7 0.00 0.00 0.00 62 1012.8
20260504194418 79 360 7.8 21.7 0.00 0.00 0.00 61 1012.9
20260504194339 79 360 8.7 21.7 0.00 0.00 0.00 62 1012.8
20260504194223 79 360 10.4 21.7 0.00 0.00 0.00 62 1012.8
20260504194123 79 360 13.0 21.7 0.00 0.00 0.00 63 1012.9
20260504194023 79 360 12.2 21.7 0.00 0.00 0.00 63 1012.8
20260504193924 79 360 10.4 18.2 0.00 0.00 0.00 62 1012.7
20260504193825 79 360 10.4 17.4 0.00 0.00 0.00 62 1012.8
20260504193725 80 360 9.6 16.5 0.00 0.00 0.00 62 1012.8
20260504193630 80 360 7.8 16.5 0.00 0.00 0.00 62 1012.8
20260504193530 79 360 7.0 16.5 0.00 0.00 0.00 62 1012.8
20260504193431 79 360 7.0 15.6 0.00 0.00 0.00 62 1012.8
20260504193329 79 360 6.1 15.6 0.00 0.00 0.00 62 1012.9
20260504193250 79 360 6.1 15.6 0.00 0.00 0.00 62 1012.9
20260504193130 79 360 6.1 15.6 0.00 0.00 0.00 62 1013.0
20260504193030 79 360 6.1 15.6 0.00 0.00 0.00 62 1013.0
20260504192951 80 360 6.1 15.6 0.00 0.00 0.00 62 1013.1
20260504192835 80 360 7.0 14.8 0.00 0.00 0.00 62 1013.1
20260504192737 80 360 7.0 15.6 0.00 0.00 0.00 61 1013.0
20260504192656 80 360 7.0 15.6 0.00 0.00 0.00 61 1013.1
20260504192534 80 360 7.0 15.6 0.00 0.00 0.00 61 1013.1
20260504192433 81 360 6.1 17.4 0.00 0.00 0.00 61 1013.1
20260504192334 80 360 7.0 17.4 0.00 0.00 0.00 61 1013.1
20260504192235 80 360 7.0 17.4 0.00 0.00 0.00 61 1013.2
20260504192119 81 360 7.0 17.4 0.00 0.00 0.00 61 1013.1
20260504192019 81 360 7.8 17.4 0.00 0.00 0.00 61 1013.1
20260504191919 80 360 7.8 17.4 0.00 0.00 0.00 60 1013.2
20260504191819 80 360 7.0 17.4 0.00 0.00 0.00 60 1013.2
20260504191720 80 360 6.1 16.5 0.00 0.00 0.00 59 1013.2
20260504191620 81 360 6.1 16.5 0.00 0.00 0.00 59 1013.2
20260504191521 81 360 4.3 15.6 0.00 0.00 0.00 60 1013.3
20260504191426 81 360 5.2 12.2 0.00 0.00 0.00 61 1013.3
20260504191327 81 360 5.2 12.2 0.00 0.00 0.00 60 1013.3
20260504191247 81 360 5.2 12.2 0.00 0.00 0.00 60 1013.4
20260504191127 81 360 5.2 13.0 0.00 0.00 0.00 60 1013.4
20260504191027 81 360 6.1 13.0 0.00 0.00 0.00 61 1013.3
20260504190928 80 360 4.3 13.0 0.00 0.00 0.00 62 1013.4
20260504190848 80 360 5.2 14.8 0.00 0.00 0.00 62 1013.4
20260504190727 80 360 4.3 14.8 0.00 0.00 0.00 63 1013.4
20260504190632 79 360 5.2 14.8 0.00 0.00 0.00 63 1013.5
20260504190532 79 360 5.2 14.8 0.00 0.00 0.00 63 1013.4
20260504190453 79 360 7.0 14.8 0.00 0.00 0.00 62 1013.5
20260504190332 78 360 7.0 16.5 0.00 0.00 0.00 62 1013.5
20260504190253 78 360 7.0 16.5 0.00 0.00 0.00 62 1013.5
20260504190152 79 360 6.1 16.5 0.00 0.00 0.00 62 1013.5
20260504190031 79 360 6.1 16.5 0.00 0.00 0.00 61 1013.5
20260504185916 79 360 5.2 16.5 0.00 0.00 0.00 62 1013.5
20260504185818 80 360 7.0 16.5 0.00 0.00 0.00 61 1013.5
20260504185718 80 360 7.0 16.5 0.00 0.00 0.00 60 1013.5
20260504185618 80 360 7.0 16.5 0.00 0.00 0.00 60 1013.5
20260504185538 80 360 7.8 16.5 0.00 0.00 0.00 62 1013.5
20260504185418 80 360 7.0 16.5 0.00 0.00 0.00 62 1013.5
20260504185319 80 360 5.2 15.6 0.00 0.00 0.00 62 1013.5
20260504185238 80 360 6.1 14.8 0.00 0.00 0.00 62 1013.5
20260504185122 80 360 5.2 14.8 0.00 0.00 0.00 62 1013.6
20260504185022 80 360 5.2 13.0 0.00 0.00 0.00 62 1013.5
20260504184923 79 360 5.2 13.0 0.00 0.00 0.00 62 1013.5
20260504184823 79 360 5.2 13.0 0.00 0.00 0.00 62 1013.4
20260504184723 79 360 4.3 14.8 0.00 0.00 0.00 62 1013.5
20260504184624 79 360 4.3 14.8 0.00 0.00 0.00 62 1013.5
20260504184528 79 360 4.3 14.8 0.00 0.00 0.00 63 1013.5
20260504184429 79 360 5.2 14.8 0.00 0.00 0.00 63 1013.5
20260504184329 79 360 5.2 18.2 0.00 0.00 0.00 63 1013.5
20260504184229 79 360 6.1 18.2 0.00 0.00 0.00 63 1013.5
20260504184149 78 360 6.1 18.2 0.00 0.00 0.00 63 1013.5
20260504184029 79 360 5.2 18.2 0.00 0.00 0.00 63 1013.7
20260504183930 79 360 5.2 18.2 0.00 0.00 0.00 63 1013.7
20260504183834 79 360 5.2 18.2 0.00 0.00 0.00 63 1013.8
20260504183735 78 360 5.2 18.2 0.00 0.00 0.00 64 1013.7
20260504183616 78 360 7.0 18.2 0.00 0.00 0.00 64 1013.7
20260504183536 78 360 7.8 18.2 0.00 0.00 0.00 65 1013.7
20260504183436 78 360 9.6 18.2 0.00 0.00 0.00 64 1013.9
20260504183316 78 360 8.7 16.5 0.00 0.00 0.00 64 1013.8
20260504183216 78 360 7.0 16.5 0.00 0.00 0.00 63 1013.8
20260504183121 78 360 6.1 16.5 0.00 0.00 0.00 63 1013.8
20260504183021 78 360 6.1 16.5 0.00 0.00 0.00 65 1013.9
20260504182942 78 360 5.2 16.5 0.00 0.00 0.00 64 1013.8
20260504182823 78 360 6.1 18.2 0.00 0.00 0.00 64 1014.0
20260504182721 78 360 7.0 18.2 0.00 0.00 0.00 64 1014.0
20260504182623 78 360 7.8 18.2 0.00 0.00 0.00 64 1014.0
20260504182523 78 360 7.0 18.2 0.00 0.00 0.00 64 1014.0
20260504182428 78 360 8.7 18.2 0.00 0.00 0.00 65 1014.0
20260504182328 78 360 8.7 18.2 0.00 0.00 0.00 65 1014.1
20260504182227 78 360 8.7 20.9 0.00 0.00 0.00 65 1014.0
20260504182127 78 360 8.7 20.9 0.00 0.00 0.00 65 1014.1
20260504182049 78 360 9.6 20.9 0.00 0.00 0.00 64 1014.0
20260504181927 78 360 8.7 20.9 0.00 0.00 0.00 64 1014.0
20260504181827 78 360 7.8 20.9 0.00 0.00 0.00 64 1014.0
20260504181728 78 360 8.7 20.9 0.00 0.00 0.00 65 1014.0
20260504181633 78 360 8.7 20.9 0.00 0.00 0.00 64 1014.2
20260504181533 77 360 7.8 20.9 0.00 0.00 0.00 65 1014.1
20260504181434 77 360 7.0 20.9 0.00 0.00 0.00 64 1014.1
20260504181334 78 360 7.0 20.0 0.00 0.00 0.00 64 1014.2
20260504181234 78 360 6.1 18.2 0.00 0.00 0.00 63 1014.1
20260504181135 78 360 6.1 18.2 0.00 0.00 0.00 63 1014.2
20260504181019 78 360 5.2 18.2 0.00 0.00 0.00 65 1014.2
20260504180940 78 360 5.2 18.2 0.00 0.00 0.00 65 1014.1
20260504180820 78 360 5.2 18.2 0.00 0.00 0.00 63 1014.1
20260504180719 78 360 4.3 18.2 0.00 0.00 0.00 64 1014.1
20260504180620 78 360 4.3 15.6 0.00 0.00 0.00 65 1014.1
20260504180520 78 360 5.2 15.6 0.00 0.00 0.00 65 1014.1
20260504180421 78 360 7.0 15.6 0.00 0.00 0.00 66 1014.2
20260504180325 77 360 7.8 15.6 0.00 0.00 0.00 65 1014.1
20260504180225 77 360 7.8 15.6 0.00 0.00 0.00 65 1014.1
20260504180125 77 360 7.0 15.6 0.00 0.00 0.00 65 1014.1
20260504180026 77 360 6.1 16.5 0.00 0.00 0.00 65 1014.1
20260504175948 77 360 5.2 16.5 0.00 0.00 0.00 67 1014.2
20260504175827 77 360 5.2 16.5 0.00 0.00 0.00 67 1014.1
20260504175729 77 360 4.3 16.5 0.00 0.00 0.00 67 1014.1
20260504175631 77 360 6.1 16.5 0.00 0.00 0.00 66 1014.1
20260504175531 77 360 5.2 16.5 0.00 0.00 0.00 67 1014.1
20260504175432 76 360 5.2 16.5 0.00 0.00 0.00 67 1014.2
20260504175331 76 360 4.3 16.5 0.00 0.00 0.00 67 1014.2
20260504175233 76 360 4.3 16.5 0.00 0.00 0.00 67 1014.2
20260504175134 76 360 3.5 13.0 0.00 0.00 0.00 67 1014.2
20260504175039 76 360 5.2 13.0 0.00 0.00 0.00 67 1014.3
20260504174918 76 360 6.1 13.0 0.00 0.00 0.00 68 1014.3
20260504174838 76 360 6.1 13.0 0.00 0.00 0.00 68 1014.3
20260504174720 76 360 6.1 13.0 0.00 0.00 0.00 68 1014.3
20260504174620 75 360 5.2 13.0 0.00 0.00 0.00 67 1014.3
20260504174521 76 360 4.3 13.0 0.00 0.00 0.00 67 1014.3
20260504174421 76 360 4.3 13.9 0.00 0.00 0.00 67 1014.3
20260504174326 76 360 4.3 13.9 0.00 0.00 0.00 67 1014.3
20260504174226 76 360 3.5 13.9 0.00 0.00 0.00 67 1014.3
20260504174126 76 360 3.5 13.9 0.00 0.00 0.00 66 1014.3
20260504174027 76 360 4.3 13.9 0.00 0.00 0.00 67 1014.4
20260504173926 76 360 4.3 14.8 0.00 0.00 0.00 67 1014.4
20260504173826 75 360 4.3 14.8 0.00 0.00 0.00 67 1014.5
20260504173727 75 360 5.2 14.8 0.00 0.00 0.00 68 1014.7
20260504173651 75 360 5.2 14.8 0.00 0.00 0.00 68 1014.7
20260504173530 75 360 5.2 14.8 0.00 0.00 0.00 67 1014.7
20260504173431 75 360 5.2 14.8 0.00 0.00 0.00 67 1014.8
20260504173332 75 360 5.2 14.8 0.00 0.00 0.00 67 1014.8
20260504173251 75 360 5.2 14.8 0.00 0.00 0.00 67 1014.8
20260504173132 75 360 6.1 14.8 0.00 0.00 0.00 67 1014.9
20260504173053 75 360 6.1 14.8 0.00 0.00 0.00 67 1014.8
20260504172916 76 360 7.0 13.9 0.00 0.00 0.00 67 1014.8
20260504172818 76 360 7.0 13.9 0.00 0.00 0.00 67 1014.8
20260504172717 76 360 7.8 13.9 0.00 0.00 0.00 67 1015.0
20260504172639 76 360 7.0 13.9 0.00 0.00 0.00 67 1015.0
20260504172539 76 360 7.0 13.9 0.00 0.00 0.00 67 1014.9
20260504172418 76 360 6.1 13.9 0.00 0.00 0.00 67 1014.9
20260504172318 75 360 5.2 13.9 0.00 0.00 0.00 67 1015.0
20260504172218 76 360 6.1 13.9 0.00 0.00 0.00 66 1015.0
20260504172138 76 360 6.1 13.9 0.00 0.00 0.00 67 1015.0
20260504172023 76 360 5.2 13.9 0.00 0.00 0.00 66 1014.9
20260504171923 76 360 5.2 13.9 0.00 0.00 0.00 66 1014.9
20260504171822 76 360 5.2 13.9 0.00 0.00 0.00 68 1015.0
20260504171743 76 360 4.3 13.9 0.00 0.00 0.00 68 1015.1
20260504171623 76 360 4.3 13.9 0.00 0.00 0.00 68 1015.0
20260504171523 75 360 5.2 13.9 0.00 0.00 0.00 68 1015.1
20260504171423 75 360 5.2 14.8 0.00 0.00 0.00 68 1015.2
20260504171328 75 360 5.2 14.8 0.00 0.00 0.00 68 1015.2
20260504171228 75 360 5.2 18.2 0.00 0.00 0.00 68 1015.2
20260504171129 75 360 4.3 18.2 0.00 0.00 0.00 69 1015.2
20260504171028 74 360 5.2 18.2 0.00 0.00 0.00 69 1015.2
20260504170928 74 360 5.2 18.2 0.00 0.00 0.00 69 1015.2
20260504170828 74 360 5.2 18.2 0.00 0.00 0.00 69 1015.2
20260504170729 74 360 7.0 18.2 0.00 0.00 0.00 69 1015.2
20260504170632 74 360 7.0 18.2 0.00 0.00 0.00 69 1015.3
20260504170533 74 360 7.8 18.2 0.00 0.00 0.00 69 1015.2
20260504170453 74 360 7.8 18.2 0.00 0.00 0.00 69 1015.2
20260504170333 74 360 7.8 18.2 0.00 0.00 0.00 71 1015.1
20260504170232 73 360 7.8 18.2 0.00 0.00 0.00 71 1015.1
20260504170133 73 360 7.8 18.2 0.00 0.00 0.00 71 1015.1
20260504160419 72 360 6.1 14.8 0.00 0.00 0.00 73 1015.7
20260504160320 72 360 5.2 14.8 0.00 0.00 0.00 73 1015.6
20260504160221 72 360 5.2 14.8 0.00 0.00 0.00 73 1015.6
20260504160121 72 360 6.1 14.8 0.00 0.00 0.00 73 1015.8
20260504151133 69 360 6.1 17.4 0.00 0.00 0.00 75 1015.9
20260504151033 69 360 7.0 17.4 0.00 0.00 0.00 75 1016.0
20260504150934 69 360 7.0 17.4 0.00 0.00 0.00 74 1016.0
20260504150835 69 360 7.0 17.4 0.00 0.00 0.00 74 1016.0
20260504150734 69 360 6.1 17.4 0.00 0.00 0.00 74 1016.0
20260504150619 69 360 7.8 17.4 0.00 0.00 0.00 75 1016.0
20260504150520 69 360 7.8 17.4 0.00 0.00 0.00 75 1016.0
20260504150420 69 360 7.0 16.5 0.00 0.00 0.00 74 1016.0
20260504150340 69 360 7.0 16.5 0.00 0.00 0.00 74 1016.0
20260504150220 69 360 7.0 16.5 0.00 0.00 0.00 74 1016.0
20260504150142 69 360 6.1 16.5 0.00 0.00 0.00 74 1016.0
20260504141321 67 360 7.8 18.2 0.00 0.00 0.00 74 1015.8
20260504141223 67 360 7.8 18.2 0.00 0.00 0.00 74 1015.7
20260504141127 67 360 7.0 18.2 0.00 0.00 0.00 74 1015.7
20260504141028 67 360 7.8 18.2 0.00 0.00 0.00 75 1015.8
20260504140927 67 360 7.8 18.2 0.00 0.00 0.00 75 1015.8
20260504140828 67 360 8.7 18.2 0.00 0.00 0.00 75 1015.8
20260504140727 67 360 8.7 18.2 0.00 0.00 0.00 75 1015.8
20260504140648 67 360 8.7 18.2 0.00 0.00 0.00 75 1015.8
20260504140526 67 360 8.7 18.2 0.00 0.00 0.00 75 1015.9
20260504140427 67 360 8.7 18.2 0.00 0.00 0.00 75 1015.9
20260504140330 67 360 8.7 18.2 0.00 0.00 0.00 75 1016.0
20260504140231 67 360 7.8 18.2 0.00 0.00 0.00 75 1016.0
20260504140130 67 360 7.0 13.9 0.00 0.00 0.00 74 1016.0
20260504130718 64 360 6.1 13.9 0.00 0.00 0.00 79 1015.8
20260504130618 64 360 5.2 13.9 0.00 0.00 0.00 79 1015.7
20260504130519 64 360 5.2 13.9 0.00 0.00 0.00 79 1015.7
20260504130419 64 360 5.2 13.9 0.00 0.00 0.00 79 1015.6
20260504130320 63 360 6.1 13.9 0.00 0.00 0.00 79 1015.7
20260504130221 63 360 7.0 13.9 0.00 0.00 0.00 79 1015.8
20260504130124 63 360 7.0 13.9 0.00 0.00 0.00 79 1015.6
20260504120225 59 360 3.5 7.0 0.00 0.00 0.00 84 1015.1
20260504120146 59 360 3.5 7.0 0.00 0.00 0.00 84 1015.0
20260504110629 59 360 3.5 7.0 0.00 0.00 0.00 83 1015.4
20260504110530 59 360 3.5 7.0 0.00 0.00 0.00 83 1015.5
20260504110430 59 360 3.5 7.0 0.00 0.00 0.00 83 1015.5
20260504110331 59 360 3.5 7.0 0.00 0.00 0.00 83 1015.5
20260504110236 60 360 3.5 7.0 0.00 0.00 0.00 83 1015.5
20260504110117 60 360 3.5 7.0 0.00 0.00 0.00 84 1015.6
20260504100545 60 360 4.3 7.8 0.00 0.00 0.00 81 1015.5
20260504100425 60 360 3.5 7.8 0.00 0.00 0.00 81 1015.5
20260504100327 60 360 3.5 7.8 0.00 0.00 0.00 81 1015.5
20260504100227 60 360 3.5 7.8 0.00 0.00 0.00 81 1015.5
20260504100126 60 360 3.5 7.8 0.00 0.00 0.00 81 1015.6
20260504090126 61 360 3.5 8.7 0.00 0.00 0.00 78 1016.0
20260504081928 62 360 7.0 10.4 0.00 0.00 0.00 77 1016.0
20260504081828 62 360 7.0 10.4 0.00 0.00 0.00 77 1016.0
20260504081729 62 360 7.0 10.4 0.00 0.00 0.00 77 1016.0
20260504081650 62 360 6.1 10.4 0.00 0.00 0.00 77 1016.0
20260504081529 62 360 6.1 10.4 0.00 0.00 0.00 76 1016.1
20260504081434 62 360 6.1 11.3 0.00 0.00 0.00 76 1016.0
20260504081334 63 360 5.2 11.3 0.00 0.00 0.00 76 1016.2
20260504081234 63 360 5.2 11.3 0.00 0.00 0.00 76 1016.1
20260504081135 63 360 5.2 11.3 0.00 0.00 0.00 76 1016.1
20260504081035 63 360 6.1 11.3 0.00 0.00 0.00 76 1016.1
20260504080936 63 360 6.1 11.3 0.00 0.00 0.00 76 1016.2
20260504080819 63 360 6.1 11.3 0.00 0.00 0.00 76 1016.2
20260504080720 63 360 6.1 11.3 0.00 0.00 0.00 76 1016.2
20260504080621 63 360 6.1 10.4 0.00 0.00 0.00 76 1016.3
20260504080520 63 360 6.1 10.4 0.00 0.00 0.00 76 1016.2
20260504080422 63 360 5.2 10.4 0.00 0.00 0.00 76 1016.2
20260504080321 63 360 6.1 10.4 0.00 0.00 0.00 76 1016.3
20260504080222 63 360 5.2 10.4 0.00 0.00 0.00 76 1016.2
20260504080146 63 360 5.2 10.4 0.00 0.00 0.00 76 1016.2
20260504070318 64 360 8.7 15.6 0.00 0.00 0.00 73 1016.9
20260504070219 64 360 7.8 14.8 0.00 0.00 0.00 73 1017.0
20260504070121 64 360 7.8 14.8 0.00 0.00 0.00 73 1017.0
20260504060228 65 360 5.2 12.2 0.00 0.00 0.00 70 1017.9
20260504060149 65 360 6.1 12.2 0.00 0.00 0.00 70 1018.0
20260504050725 66 360 5.2 13.9 0.00 0.00 0.00 66 1018.3
20260504050626 66 360 5.2 13.9 0.00 0.00 0.00 66 1018.3
20260504050527 66 360 5.2 13.9 0.00 0.00 0.00 66 1018.3
20260504050427 66 360 5.2 13.9 0.00 0.00 0.00 66 1018.2
20260504050347 66 360 6.1 13.9 0.00 0.00 0.00 66 1018.2
20260504050229 66 360 6.1 13.9 0.00 0.00 0.00 66 1018.2
20260504050128 66 360 6.1 13.9 0.00 0.00 0.00 66 1018.3
20260504045921 66 360 6.1 13.9 0.00 0.00 0.00 65 1018.3
20260504045823 66 360 6.1 13.0 0.00 0.00 0.00 65 1018.4
20260504045743 66 360 6.1 13.0 0.00 0.00 0.00 65 1018.3
20260504045623 66 360 6.1 13.0 0.00 0.00 0.00 65 1018.3
20260504045523 66 360 6.1 13.9 0.00 0.00 0.00 65 1018.3
20260504045448 66 360 6.1 13.9 0.00 0.00 0.00 65 1018.3
20260504045327 66 360 6.1 18.2 0.00 0.00 0.00 65 1018.3
20260504045228 66 360 6.1 18.2 0.00 0.00 0.00 65 1018.3
20260504045128 66 360 7.0 18.2 0.00 0.00 0.00 65 1018.2
20260504045029 67 360 7.8 18.2 0.00 0.00 0.00 65 1018.2
20260504044929 67 360 7.8 18.2 0.00 0.00 0.00 65 1018.2
20260504044829 67 360 8.7 18.2 0.00 0.00 0.00 65 1018.2
20260504044754 67 360 8.7 18.2 0.00 0.00 0.00 65 1018.3
20260504044653 67 360 8.7 18.2 0.00 0.00 0.00 65 1018.2
20260504044534 67 360 7.8 18.2 0.00 0.00 0.00 65 1018.3
20260504044434 67 360 7.8 18.2 0.00 0.00 0.00 64 1018.3
20260504044334 67 360 8.7 18.2 0.00 0.00 0.00 64 1018.3
20260504044235 67 360 8.7 15.6 0.00 0.00 0.00 64 1018.2
20260504044116 67 360 7.8 15.6 0.00 0.00 0.00 64 1018.4
20260504044021 67 360 8.7 15.6 0.00 0.00 0.00 64 1018.3
20260504043920 67 360 8.7 15.6 0.00 0.00 0.00 64 1018.3
20260504043821 67 360 7.0 13.9 0.00 0.00 0.00 64 1018.3
20260504043722 67 360 7.0 13.9 0.00 0.00 0.00 64 1018.4
20260504043643 67 360 7.0 13.9 0.00 0.00 0.00 64 1018.4
20260504043521 67 360 6.1 13.9 0.00 0.00 0.00 64 1018.4
20260504043422 67 360 7.0 13.9 0.00 0.00 0.00 63 1018.4
20260504043326 67 360 7.0 13.9 0.00 0.00 0.00 63 1018.4
20260504043227 67 360 7.8 13.9 0.00 0.00 0.00 63 1018.3
20260504043128 67 360 7.8 13.9 0.00 0.00 0.00 63 1018.3
20260504043028 67 360 8.7 13.9 0.00 0.00 0.00 63 1018.3
20260504042928 67 360 7.8 13.0 0.00 0.00 0.00 63 1018.3
20260504042829 67 360 7.8 13.0 0.00 0.00 0.00 63 1018.4
20260504042731 67 360 8.7 13.0 0.00 0.00 0.00 63 1018.3
20260504042635 67 360 8.7 13.0 0.00 0.00 0.00 63 1018.4
20260504042535 67 360 8.7 13.9 0.00 0.00 0.00 63 1018.3
20260504042435 67 360 8.7 15.6 0.00 0.00 0.00 62 1018.4
20260504042356 67 360 8.7 15.6 0.00 0.00 0.00 62 1018.4
20260504042216 67 360 7.8 15.6 0.00 0.00 0.00 62 1018.4
20260504042117 67 360 7.8 15.6 0.00 0.00 0.00 62 1018.3
20260504042022 67 360 7.8 15.6 0.00 0.00 0.00 62 1018.4
20260504041922 67 360 7.8 15.6 0.00 0.00 0.00 62 1018.4
20260504041823 67 360 7.8 15.6 0.00 0.00 0.00 61 1018.4
20260504041724 67 360 7.8 15.6 0.00 0.00 0.00 61 1018.4
20260504041624 67 360 7.8 15.6 0.00 0.00 0.00 61 1018.4
20260504041525 67 360 7.0 13.0 0.00 0.00 0.00 61 1018.4
20260504041425 67 360 6.1 13.0 0.00 0.00 0.00 61 1018.5
20260504041330 67 360 5.2 13.0 0.00 0.00 0.00 61 1018.5
20260504041231 67 360 5.2 13.0 0.00 0.00 0.00 61 1018.4
20260504041132 67 360 4.3 13.0 0.00 0.00 0.00 61 1018.5
20260504041034 67 360 3.5 13.0 0.00 0.00 0.00 61 1018.5
20260504040933 67 360 3.5 13.0 0.00 0.00 0.00 61 1018.5
20260504040834 67 360 4.3 13.0 0.00 0.00 0.00 61 1018.5
20260504040738 67 360 5.2 13.0 0.00 0.00 0.00 60 1018.4
20260504040618 67 360 5.2 13.0 0.00 0.00 0.00 60 1018.4
20260504040518 67 360 6.1 13.0 0.00 0.00 0.00 60 1018.4
20260504040419 67 360 6.1 13.0 0.00 0.00 0.00 60 1018.3
20260504040319 67 360 6.1 13.0 0.00 0.00 0.00 60 1018.4
20260504040240 68 360 7.0 13.0 0.00 0.00 0.00 59 1018.4
20260504040120 68 360 7.0 13.0 0.00 0.00 0.00 59 1018.4
20260504040025 68 360 7.0 13.0 0.00 0.00 0.00 59 1018.4
20260504035925 68 360 7.8 13.0 0.00 0.00 0.00 59 1018.4
20260504035825 68 360 7.0 13.0 0.00 0.00 0.00 59 1018.4
20260504035728 68 360 7.0 13.0 0.00 0.00 0.00 59 1018.4
20260504035627 68 360 7.0 13.9 0.00 0.00 0.00 59 1018.4
20260504035546 68 360 7.0 13.9 0.00 0.00 0.00 59 1018.5
20260504035446 68 360 7.0 13.9 0.00 0.00 0.00 58 1018.5
20260504035325 68 360 6.1 13.9 0.00 0.00 0.00 58 1018.6
20260504035229 68 360 7.0 13.9 0.00 0.00 0.00 58 1018.6
20260504035131 68 360 7.8 13.9 0.00 0.00 0.00 57 1018.5
20260504035032 68 360 7.8 13.9 0.00 0.00 0.00 57 1018.6
20260504034933 68 360 7.0 13.9 0.00 0.00 0.00 57 1018.6
20260504034833 68 360 7.8 13.9 0.00 0.00 0.00 57 1018.6
20260504034734 68 360 7.0 13.9 0.00 0.00 0.00 57 1018.6
20260504034618 68 360 6.1 13.0 0.00 0.00 0.00 57 1018.6
20260504034539 68 360 6.1 17.4 0.00 0.00 0.00 57 1018.6
20260504034418 68 360 7.0 17.4 0.00 0.00 0.00 56 1018.5
20260504034319 68 360 6.1 17.4 0.00 0.00 0.00 56 1018.5
20260504034219 68 360 7.0 17.4 0.00 0.00 0.00 56 1018.4
20260504034120 68 360 7.8 17.4 0.00 0.00 0.00 56 1018.5
20260504034020 68 360 7.8 17.4 0.00 0.00 0.00 56 1018.5
20260504033922 68 360 7.8 17.4 0.00 0.00 0.00 56 1018.5
20260504033842 68 360 7.8 17.4 0.00 0.00 0.00 56 1018.5
20260504033743 68 360 7.0 17.4 0.00 0.00 0.00 55 1018.4
20260504033616 68 360 6.1 17.4 0.00 0.00 0.00 55 1018.5
20260504033517 68 360 6.1 12.2 0.00 0.00 0.00 55 1018.5
20260504033418 68 360 6.1 12.2 0.00 0.00 0.00 55 1018.4
20260504033318 68 360 5.2 12.2 0.00 0.00 0.00 55 1018.5
20260504033222 68 360 6.1 12.2 0.00 0.00 0.00 55 1018.5
20260504033123 68 360 6.1 12.2 0.00 0.00 0.00 55 1018.5
20260504033044 68 360 6.1 12.2 0.00 0.00 0.00 55 1018.5
20260504032923 68 360 6.1 12.2 0.00 0.00 0.00 55 1018.4
20260504032825 68 360 6.1 12.2 0.00 0.00 0.00 55 1018.4
20260504032724 68 360 6.1 12.2 0.00 0.00 0.00 55 1018.4
20260504032625 68 360 6.1 12.2 0.00 0.00 0.00 55 1018.4
20260504032530 68 360 6.1 9.6 0.00 0.00 0.00 55 1018.4
20260504032430 68 360 5.2 9.6 0.00 0.00 0.00 55 1018.4
20260504032331 68 360 5.2 9.6 0.00 0.00 0.00 55 1018.3
20260504032230 68 360 5.2 9.6 0.00 0.00 0.00 55 1018.3
20260504032131 68 360 5.2 9.6 0.00 0.00 0.00 54 1018.4
20260504032032 68 360 4.3 9.6 0.00 0.00 0.00 54 1018.3
20260504031954 68 360 4.3 7.8 0.00 0.00 0.00 55 1018.3
20260504031817 68 360 4.3 7.8 0.00 0.00 0.00 55 1018.2
20260504031718 68 360 3.5 7.0 0.00 0.00 0.00 55 1018.3
20260504031637 68 360 3.5 7.0 0.00 0.00 0.00 55 1018.2
20260504031517 68 360 3.5 7.0 0.00 0.00 0.00 55 1018.2
20260504031418 68 360 3.5 7.0 0.00 0.00 0.00 55 1018.3
20260504031318 68 360 3.5 7.0 0.00 0.00 0.00 54 1018.2
20260504031239 68 360 3.5 5.2 0.00 0.00 0.00 54 1018.2
20260504031121 68 360 3.5 5.2 0.00 0.00 0.00 54 1018.3
20260504031022 68 360 3.5 5.2 0.00 0.00 0.00 54 1018.3
20260504030922 68 360 2.6 5.2 0.00 0.00 0.00 54 1018.4
20260504030822 68 360 2.6 5.2 0.00 0.00 0.00 54 1018.3
20260504030722 68 360 2.6 5.2 0.00 0.00 0.00 54 1018.4
20260504030623 68 360 2.6 4.3 0.00 0.00 0.00 54 1018.3
20260504030543 68 360 2.6 5.2 0.00 0.00 0.00 54 1018.3
20260504030427 68 360 2.6 5.2 0.00 0.00 0.00 54 1018.3
20260504030327 68 360 2.6 5.2 0.00 0.00 0.00 54 1018.3
20260504030248 68 360 2.6 5.2 0.00 0.00 0.00 54 1018.3
20260504030128 68 360 2.6 5.2 0.00 0.00 0.00 54 1018.3
20260504030029 68 360 2.6 5.2 0.00 0.00 0.00 54 1018.3
20260504025947 68 360 2.6 5.2 0.00 0.00 0.00 54 1018.3
20260504025826 68 360 2.6 5.2 0.00 0.00 0.00 54 1018.3
20260504025729 68 360 2.6 5.2 0.00 0.00 0.00 54 1018.3
20260504025631 68 360 2.6 5.2 0.00 0.00 0.00 54 1018.3
20260504025552 69 360 2.6 5.2 0.00 0.00 0.00 54 1018.3
20260504025451 69 360 2.6 5.2 0.00 0.00 0.00 54 1018.3
20260504025331 69 360 2.6 5.2 0.00 0.00 0.00 53 1018.3
20260504025253 69 360 2.6 5.2 0.00 0.00 0.00 53 1018.3
20260504025132 69 360 2.6 5.2 0.00 0.00 0.00 53 1018.3
20260504025032 69 360 2.6 5.2 0.00 0.00 0.00 53 1018.4
20260504024918 69 360 2.6 5.2 0.00 0.00 0.00 53 1018.2
20260504024838 69 360 2.6 5.2 0.00 0.00 0.00 53 1018.3
20260504024717 69 360 2.6 5.2 0.00 0.00 0.00 53 1018.3
20260504024619 69 360 2.6 5.2 0.00 0.00 0.00 53 1018.3
20260504024520 69 360 2.6 5.2 0.00 0.00 0.00 53 1018.3
20260504024420 69 360 2.6 5.2 0.00 0.00 0.00 53 1018.3
20260504024321 69 360 2.6 5.2 0.00 0.00 0.00 53 1018.4
20260504024241 69 360 2.6 5.2 0.00 0.00 0.00 53 1018.3
20260504024123 69 360 2.6 5.2 0.00 0.00 0.00 53 1018.4
20260504024023 69 360 2.6 5.2 0.00 0.00 0.00 53 1018.3
20260504023923 69 360 2.6 5.2 0.00 0.00 0.00 52 1018.3
20260504023825 69 360 3.5 5.2 0.00 0.00 0.00 52 1018.2
20260504023725 69 360 2.6 5.2 0.00 0.00 0.00 53 1018.2
20260504023625 69 360 2.6 5.2 0.00 0.00 0.00 53 1018.2
20260504023529 69 360 2.6 5.2 0.00 0.00 0.00 53 1018.2
20260504023431 69 360 2.6 5.2 0.00 0.00 0.00 53 1018.2
20260504023352 69 360 2.6 5.2 0.00 0.00 0.00 53 1018.2
20260504023231 69 360 3.5 5.2 0.00 0.00 0.00 53 1018.1
20260504023130 69 360 2.6 5.2 0.00 0.00 0.00 52 1018.1
20260504023031 69 360 3.5 5.2 0.00 0.00 0.00 52 1018.2
20260504022931 69 360 3.5 7.0 0.00 0.00 0.00 52 1018.2
20260504022852 69 360 2.6 7.0 0.00 0.00 0.00 52 1018.2
20260504022753 69 360 2.6 7.0 0.00 0.00 0.00 52 1018.1
20260504022616 69 360 2.6 7.0 0.00 0.00 0.00 52 1018.2
20260504022516 69 360 2.6 7.0 0.00 0.00 0.00 52 1018.2
20260504022418 69 360 3.5 7.0 0.00 0.00 0.00 52 1018.2
20260504022318 69 360 3.5 7.0 0.00 0.00 0.00 52 1018.1
20260504022218 69 360 3.5 7.0 0.00 0.00 0.00 52 1018.2
20260504022119 69 360 3.5 7.0 0.00 0.00 0.00 52 1018.1
20260504022043 69 360 3.5 7.0 0.00 0.00 0.00 52 1018.1
20260504022004 69 360 3.5 7.0 0.00 0.00 0.00 52 1018.1
20260504021816 70 360 3.5 7.0 0.00 0.00 0.00 52 1018.1
20260504021717 70 360 3.5 5.2 0.00 0.00 0.00 53 1018.1
20260504021617 70 360 3.5 5.2 0.00 0.00 0.00 51 1018.1
20260504021518 70 360 3.5 5.2 0.00 0.00 0.00 51 1018.1
20260504021419 70 360 2.6 5.2 0.00 0.00 0.00 51 1018.2
20260504021324 70 360 2.6 5.2 0.00 0.00 0.00 51 1018.2
20260504021225 70 360 2.6 4.3 0.00 0.00 0.00 51 1018.2
20260504021125 70 360 2.6 4.3 0.00 0.00 0.00 51 1018.2
20260504021047 70 360 2.6 4.3 0.00 0.00 0.00 51 1018.2
20260504020925 70 360 2.6 4.3 0.00 0.00 0.00 51 1018.2
20260504020826 70 360 2.6 4.3 0.00 0.00 0.00 51 1018.2
20260504020726 70 360 2.6 4.3 0.00 0.00 0.00 51 1018.2
20260504020631 70 360 2.6 4.3 0.00 0.00 0.00 51 1018.1
20260504020531 70 360 2.6 4.3 0.00 0.00 0.00 51 1018.2
20260504020432 70 360 2.6 4.3 0.00 0.00 0.00 51 1018.1
20260504020332 70 360 2.6 4.3 0.00 0.00 0.00 50 1018.1
20260504020233 70 360 2.6 4.3 0.00 0.00 0.00 50 1018.1
20260504020134 70 360 2.6 4.3 0.00 0.00 0.00 50 1018.1
20260504020018 70 360 2.6 5.2 0.00 0.00 0.00 50 1018.1
20260504015919 70 360 2.6 5.2 0.00 0.00 0.00 50 1018.1